Morristown, NJ

8:54 PM EDT on June 20, 2018 (GMT -0400)
Morristown Municipal

Weather History for KMMU - October, 2017

Change the Weather History Date:

Thursday, October 26, 2017

  Actual Average Record
Temperature  
Mean Temperature 50 °F -  
Max Temperature 59 °F 62 °F 80 °F (1963)
Min Temperature 41 °F 37 °F 18 °F (1952)
Degree Days  
Heating Degree Days 15    
Moisture  
Dew Point 39 °F    
Average Humidity 63    
Maximum Humidity 93    
Minimum Humidity 48    
Precipitation  
Precipitation 0.00 in - - ()
Sea Level Pressure  
Sea Level Pressure 29.73 in    
Wind  
Wind Speed 3 mph (NW)    
Max Wind Speed 13 mph    
Max Gust Speed 24 mph    
Visibility 10 miles    
Events      
Averages and records for this station are not official NWS values.
T = Trace of Precipitation, MM = Missing Value Source: NWS Daily Summary

Daily Weather History Graph

Daily Weather History Graph

Search for Another Location

Airport or City:

Astronomy

Oct. 26, 2017 Rise Set
Actual Time 7:21 AM EDT 6:01 PM EDT
Civil Twilight 6:53 AM EDT 6:29 PM EDT
Nautical Twilight 6:21 AM EDT 7:01 PM EDT
Astronomical Twilight 5:49 AM EDT 7:33 PM EDT
Moon 1:13 PM EDT (10/26) 11:12 PM EDT (10/26)
Length of Visible Light 11h 35m
Length of Day
10h 39m
Waxing Crescent, 38% of the Moon is Illuminated
Oct 26
Waxing Crescent
Oct 27
First Quarter
Nov 4
Full
Nov 10
Last Quarter
Nov 18
New

Hourly Weather History & Observations

Time (EDT) Temp. Windchill Dew Point Humidity Pressure Visibility Wind Dir Wind Speed Gust Speed Precip Events Conditions
12:15 AM 55.4 °F - 37.4 °F 51% 29.71 in 10.0 mi NNW 3.5 mph - N/A   Overcast
12:35 AM 53.6 °F - 37.4 °F 54% 29.71 in 10.0 mi Calm Calm - N/A   Mostly Cloudy
12:55 AM 53.6 °F - 39.2 °F 58% 29.71 in 10.0 mi WNW 3.5 mph - N/A   Scattered Clouds
1:15 AM 53.6 °F - 39.2 °F 58% 29.73 in 10.0 mi Calm Calm - N/A   Scattered Clouds
1:35 AM 53.6 °F - 39.2 °F 58% 29.71 in 10.0 mi NW 4.6 mph - N/A   Scattered Clouds
1:55 AM 53.6 °F - 39.2 °F 58% 29.68 in 10.0 mi Calm Calm - N/A   Scattered Clouds
2:15 AM 53.6 °F - 39.2 °F 58% 29.68 in 10.0 mi NNW 3.5 mph - N/A   Scattered Clouds
2:35 AM 53.6 °F - 39.2 °F 58% 29.66 in 10.0 mi North 3.5 mph - N/A   Overcast
2:55 AM 51.8 °F - 39.2 °F 62% 29.67 in 10.0 mi Calm Calm - N/A   Overcast
3:15 AM 51.8 °F - 39.2 °F 62% 29.67 in 10.0 mi Calm Calm - N/A   Overcast
3:35 AM 51.8 °F - 39.2 °F 62% 29.68 in 10.0 mi Calm Calm - N/A   Overcast
3:55 AM 51.8 °F - 39.2 °F 62% 29.67 in 10.0 mi WNW 4.6 mph - N/A   Overcast
4:15 AM 51.8 °F - 39.2 °F 62% 29.67 in 10.0 mi NW 3.5 mph - N/A   Overcast
4:35 AM 51.8 °F - 39.2 °F 62% 29.68 in 10.0 mi NNW 3.5 mph - N/A   Mostly Cloudy
4:55 AM 51.8 °F - 41.0 °F 67% 29.68 in 10.0 mi NW 3.5 mph - N/A   Overcast
5:15 AM 51.8 °F - 39.2 °F 62% 29.69 in 10.0 mi NW 3.5 mph - N/A   Overcast
5:35 AM 50.0 °F - 39.2 °F 66% 29.68 in 10.0 mi Calm Calm - N/A   Mostly Cloudy
5:55 AM 50.0 °F - 39.2 °F 66% 29.68 in 10.0 mi Calm Calm - N/A   Clear
6:15 AM 50.0 °F - 39.2 °F 66% 29.68 in 10.0 mi Calm Calm - N/A   Clear
6:35 AM 50.0 °F - 39.2 °F 66% 29.68 in 10.0 mi Calm Calm - N/A   Clear
6:45 AM 48.2 °F - 41.0 °F 76% 29.68 in 10.0 mi NNW 4.6 mph - N/A   Mostly Cloudy
7:45 AM 50.0 °F - 41.0 °F 71% 29.68 in 10.0 mi NNW 5.8 mph - N/A   Mostly Cloudy
9:45 AM 53.6 °F - 41.0 °F 62% 29.71 in 10.0 mi North 4.6 mph - N/A   Overcast
10:45 AM 53.6 °F - 41.0 °F 62% 29.71 in 10.0 mi North 9.2 mph 15.0 mph N/A   Overcast
10:46 AM 53.6 °F - 41.0 °F 62% 29.71 in 10.0 mi North 9.2 mph 15.0 mph N/A   Overcast
11:45 AM 55.4 °F - 42.8 °F 63% 29.71 in 10.0 mi North 5.8 mph - N/A   Overcast
12:45 PM 59.0 °F - 41.0 °F 51% 29.69 in 10.0 mi North 9.2 mph - N/A   Overcast
1:55 PM 57.2 °F - 41.0 °F 55% 29.69 in 10.0 mi WNW 6.9 mph - N/A   Overcast
2:45 PM 55.4 °F - 42.8 °F 63% 29.69 in 10.0 mi West 10.4 mph 15.0 mph N/A   Overcast
2:46 PM 55.4 °F - 42.8 °F 63% 29.69 in 10.0 mi West 10.4 mph 15.0 mph N/A   Overcast
3:45 PM 55.4 °F - 42.8 °F 63% 29.71 in 10.0 mi West 10.4 mph 15.0 mph N/A   Overcast
4:45 PM 57.2 °F - 37.4 °F 48% 29.74 in 10.0 mi NW 12.7 mph 21.9 mph N/A   Overcast
5:58 PM 55.4 °F - 37.4 °F 51% 29.78 in 10.0 mi NNW 10.4 mph 24.2 mph N/A   Mostly Cloudy
6:45 PM 53.6 °F - 35.6 °F 51% 29.82 in 10.0 mi NW 6.9 mph 12.7 mph N/A   Scattered Clouds
9:45 PM 48.2 °F - 37.4 °F 66% 29.91 in 10.0 mi NW 5.8 mph - N/A   Clear
10:35 PM 42.8 °F - 37.4 °F 81% 29.92 in 10.0 mi Calm Calm - N/A   Clear
10:55 PM 41.0 °F - 37.4 °F 87% 29.92 in 10.0 mi Calm Calm - N/A   Clear
11:15 PM 41.0 °F 39.0 °F 39.2 °F 93% 29.92 in 10.0 mi WSW 3.5 mph - N/A   Clear
11:35 PM 41.0 °F 39.0 °F 37.4 °F 87% 29.93 in 10.0 mi SW 3.5 mph - N/A   Clear